Theta_e
313 309 306 303 296 290 286 289 293 294 295 300 297 295 294 294 294 291 308 319 327 331 339 346 350 353 354 354 354 353 351 349 349 350 351 351 350 347 345 344 343 341 340 338 335 332 330 328 331
310 310 304 295 289 284 286 288 291 295 295 296 298 297 297 295 300 306 311 321 330 333 340 344 346 351 354 354 353 352 352 350 350 350 350 349 349 347 346 343 341 339 338 336 334 331 328 326 327
310 305 298 291 285 284 286 289 294 293 295 295 300 302 300 297 304 306 313 323 332 335 340 342 346 350 353 354 352 352 351 351 351 351 350 348 348 347 343 341 339 337 336 334 333 330 326 325 326
305 301 295 289 288 291 290 294 291 297 295 297 297 298 297 302 303 310 315 328 331 333 338 341 347 350 352 353 352 351 351 351 351 351 349 348 344 341 340 339 338 336 334 332 331 328 325 324 324
300 295 289 287 288 291 289 293 293 293 298 299 297 297 295 301 312 315 319 327 328 330 335 339 346 349 351 351 351 350 350 350 350 349 348 347 342 340 337 337 337 336 332 330 329 326 323 321 322
297 292 286 285 287 290 292 292 293 292 293 295 298 296 299 303 308 314 317 324 326 329 333 336 338 342 346 348 349 349 349 349 348 348 347 346 341 338 336 336 335 333 330 329 327 325 321 319 319
295 288 285 284 286 289 292 293 296 293 292 295 296 296 298 303 304 313 313 312 320 327 330 333 337 338 337 341 343 346 347 346 346 346 345 343 340 339 337 334 331 329 329 328 326 324 321 319 316
295 291 286 285 286 287 292 293 293 295 294 296 299 293 295 301 303 310 313 312 311 324 328 330 333 340 339 338 335 338 341 342 343 341 339 335 333 333 331 329 331 328 328 328 326 323 321 318 314
294 287 283 285 287 289 292 293 294 294 297 293 295 300 296 301 304 306 306 310 310 316 323 326 329 337 338 335 334 333 335 336 336 336 332 329 328 328 328 326 328 328 328 327 325 323 320 315 306
291 285 286 289 290 294 293 292 292 295 292 292 293 296 299 301 302 303 303 304 305 310 314 323 326 330 336 338 335 335 336 333 333 332 331 329 329 327 325 323 325 327 326 326 325 322 316 305 292
291 288 289 292 294 294 293 292 293 294 291 292 292 294 296 294 294 294 294 294 296 301 308 315 324 327 333 335 336 335 331 330 330 332 330 326 326 324 323 322 321 317 315 314 314 309 305 301 295
292 294 294 296 296 294 292 293 293 293 294 295 293 294 294 294 294 294 294 294 295 296 299 307 319 325 328 334 333 332 331 327 326 329 329 326 323 322 320 320 318 317 315 313 308 305 303 300 296
291 292 294 296 295 294 294 293 293 294 293 294 296 295 293 293 293 293 294 295 295 296 298 301 307 321 324 329 330 328 328 326 326 324 326 325 323 321 320 318 317 315 313 312 308 304 302 300 297
291 292 293 294 294 293 293 290 292 292 293 294 294 292 292 292 292 292 292 293 293 295 297 301 307 316 322 322 324 324 325 325 324 324 324 324 323 321 319 317 316 315 313 310 306 303 301 300 295
292 290 291 292 291 292 293 289 291 292 293 292 291 290 291 291 291 290 291 292 292 294 296 299 312 316 318 321 321 323 323 323 324 324 324 324 322 320 319 317 315 314 311 308 303 301 299 297 295
288 287 285 291 291 291 291 287 292 293 292 290 289 288 289 289 289 289 290 291 292 293 294 297 304 311 314 315 317 316 316 316 315 316 317 319 320 318 316 314 313 310 309 307 306 304 302 299 294
285 283 283 288 291 290 289 287 292 292 290 289 287 287 288 287 288 289 289 289 290 292 293 294 297 301 309 308 307 303 302 301 300 300 301 305 309 314 315 313 311 310 309 307 306 303 300 299 297
283 282 283 284 288 289 286 288 291 290 290 287 285 285 286 286 286 288 288 289 290 291 292 293 294 295 299 301 300 299 298 297 297 296 296 297 299 304 308 309 308 307 307 306 304 301 298 296 294
286 284 283 286 289 287 288 287 287 289 288 286 285 285 285 286 287 288 288 288 289 290 290 291 291 292 294 294 295 294 292 293 293 293 293 294 294 295 296 300 301 303 302 302 301 298 297 297 293
286 284 284 287 289 288 288 287 286 287 286 286 285 284 285 285 286 287 287 286 286 287 288 289 290 290 292 292 291 291 291 290 289 289 289 289 289 290 291 292 293 294 295 296 297 297 295 294 292
285 283 283 285 287 287 285 284 284 285 286 286 285 285 285 284 284 285 285 284 284 285 286 287 288 289 289 290 290 289 288 287 286 286 286 287 287 287 288 288 289 290 291 290 291 291 291 290 291
282 289 288 286 284 281 284 278 281 283 283 284 284 283 283 283 285 285 284 283 283 283 284 286 287 287 287 287 286 285 284 283 284 285 285 285 286 286 286 286 286 287 288 287 288 290 289 288 287
287 290 288 286 282 279 280 279 280 283 281 282 282 283 283 283 283 283 283 284 284 283 281 282 285 286 286 285 285 284 283 283 283 282 282 283 283 284 284 285 284 284 285 285 286 286 287 288 287
290 287 285 283 281 276 282 281 280 280 283 282 283 283 284 283 282 282 283 283 282 282 281 281 282 282 284 284 283 282 281 281 281 281 281 281 282 282 283 283 283 283 283 283 284 284 284 285 287
285 283 278 277 275 276 280 279 282 283 284 285 283 283 283 283 281 281 281 281 281 281 281 282 282 281 282 282 283 282 282 281 281 280 280 280 280 280 281 281 281 282 282 282 282 282 282 283 283
284 284 279 273 273 277 281 279 283 283 285 287 286 285 283 282 282 281 281 281 281 281 281 281 281 281 281 281 281 281 282 281 281 280 280 280 279 280 280 280 280 280 281 281 281 280 280 280 280
284 281 286 279 269 273 279 281 282 283 283 283 283 282 281 281 281 281 281 281 281 280 281 281 281 281 281 281 281 281 281 281 281 281 281 280 280 282 282 282 281 281 280 279 279 279 278 278 279
286 287 281 280 271 269 277 278 281 280 280 281 281 281 281 281 280 281 281 280 280 281 280 280 281 281 281 281 281 281 280 280 280 280 280 280 280 280 280 280 279 280 280 280 280 279 279 277 278
283 282 283 283 280 273 270 276 282 283 283 282 282 282 281 280 279 279 280 280 280 280 280 280 280 280 280 280 279 279 279 279 279 279 279 279 279 279 279 279 279 279 279 279 279 279 279 278 278
284 284 284 279 276 277 276 280 283 285 286 284 283 283 282 281 280 279 279 279 279 279 279 279 278 279 279 278 278 279 279 278 278 277 278 278 278 278 278 278 278 278 279 279 278 278 278 278 278
Wind_Speed
4 3 3 6 6 6 1 1 2 1 2 1 2 2 2 2 4 4 3 6 1 6 9 8 10 11 12 12 11 10 8 8 9 9 10 11 13 12 11 12 12 10 11 11 11 12 11 10 9
2 1 5 3 7 5 5 4 2 2 1 1 2 2 2 0 1 4 2 6 3 6 6 6 9 11 11 11 12 11 9 8 9 8 8 10 13 13 12 11 12 10 10 10 11 12 12 11 9
2 4 5 6 4 4 3 4 2 1 1 2 1 1 3 1 1 2 2 7 6 6 6 6 9 10 11 12 12 11 10 9 8 7 10 10 10 12 13 12 11 9 9 10 11 11 11 11 9
3 5 5 6 1 2 4 2 2 2 2 3 1 2 3 0 1 3 3 7 7 6 6 8 10 10 12 12 12 11 9 8 8 7 9 7 9 12 12 10 11 7 7 8 9 10 10 10 10
5 4 5 3 3 3 4 2 1 2 2 2 2 2 2 1 2 1 4 5 6 5 5 6 11 10 11 13 11 10 10 8 7 7 7 9 11 12 11 10 8 6 5 6 8 8 9 9 9
5 4 5 1 3 4 5 3 1 1 2 3 2 2 3 3 0 4 4 5 4 5 5 5 7 8 9 12 11 10 10 8 7 7 7 10 11 12 11 9 6 4 4 5 6 7 8 9 9
7 5 4 3 3 4 2 5 2 1 3 2 1 2 4 3 2 3 3 2 2 4 4 5 5 6 7 8 11 11 9 7 7 7 8 10 11 11 12 10 4 3 5 5 5 7 8 8 9
6 5 3 3 2 3 2 5 2 2 2 4 1 2 4 3 4 4 4 4 1 3 5 6 5 7 5 5 8 10 10 8 7 6 7 8 10 10 14 9 2 2 4 5 5 6 6 8 9
3 6 1 3 5 2 2 5 1 1 1 4 2 1 3 3 3 3 3 3 2 2 4 3 4 8 6 4 3 5 7 6 5 6 7 6 4 4 7 9 8 2 3 5 2 4 6 9 10
6 4 7 4 4 1 3 0 3 4 4 3 4 5 6 5 7 6 6 7 5 5 4 4 4 4 5 4 3 2 3 3 3 4 4 3 3 3 2 6 8 5 2 4 1 3 8 7 4
2 5 3 3 4 1 1 2 1 1 4 5 4 5 9 9 11 10 8 6 7 9 5 5 5 5 6 5 3 2 1 2 2 3 4 4 4 3 3 3 2 2 3 2 4 4 3 4 3
1 4 3 3 2 2 2 1 4 4 3 2 6 6 6 11 10 9 9 9 9 9 8 8 6 6 5 3 3 2 2 1 1 2 4 3 3 3 3 3 3 3 2 2 2 1 2 2 2
2 2 2 4 5 5 2 7 5 8 2 9 9 13 10 9 9 7 7 8 9 9 10 8 6 5 5 5 3 3 1 2 2 2 4 4 3 3 3 2 1 1 2 2 2 2 0 1 2
2 3 6 6 5 4 5 2 4 4 7 10 12 11 10 11 9 8 12 12 12 11 12 11 3 4 5 4 5 3 2 2 0 2 1 2 2 3 3 2 2 2 2 2 2 1 0 2 2
1 5 7 5 1 4 6 1 6 6 9 10 10 8 10 10 12 12 10 9 11 10 10 12 8 6 8 8 6 5 5 5 6 5 5 4 2 1 1 1 1 2 1 1 2 2 1 1 2
3 4 3 2 2 0 4 7 3 7 8 8 8 7 8 11 10 11 11 10 11 10 12 11 10 10 11 11 9 8 9 9 9 9 8 10 7 5 4 3 3 3 2 1 1 1 3 3 2
5 3 5 8 3 2 3 6 4 10 7 8 7 7 8 9 12 12 11 10 11 11 11 13 13 13 14 14 12 13 14 11 10 10 10 13 13 11 7 5 4 4 3 2 2 2 2 3 3
7 5 4 5 0 2 1 7 9 13 6 8 7 7 8 10 10 8 10 10 10 11 12 13 11 13 11 10 11 10 11 10 10 10 11 14 12 14 10 8 8 5 4 4 3 3 0 2 2
3 5 6 4 4 1 6 5 5 8 8 8 6 6 7 8 6 8 9 8 10 13 14 14 15 12 9 6 4 7 9 8 11 11 14 15 13 13 13 9 10 9 8 5 5 3 4 3 3
2 2 6 4 5 5 6 4 4 6 4 4 6 6 6 5 8 9 11 12 13 11 12 14 14 14 11 6 4 4 4 6 6 7 12 13 14 14 12 11 9 11 8 10 9 6 4 2 3
5 7 5 7 3 3 1 4 4 4 6 7 6 5 5 6 6 6 10 10 9 13 12 13 14 14 13 11 6 4 5 5 7 9 9 10 12 13 12 12 10 10 8 8 8 9 8 4 3
4 9 7 4 3 5 1 6 3 5 4 4 4 4 5 5 5 5 6 7 8 8 8 12 12 13 12 11 12 15 10 9 4 4 5 7 11 12 11 11 11 9 7 9 8 7 4 4 4
7 5 6 4 4 1 3 0 3 6 5 6 6 6 5 5 5 6 6 6 6 6 7 7 10 11 10 10 9 9 10 5 3 3 6 7 6 7 9 8 8 8 6 6 6 7 7 3 2
7 6 6 4 3 3 10 8 4 7 7 10 7 7 7 6 5 5 5 5 6 5 6 6 10 8 7 9 9 10 9 6 6 5 6 4 3 4 6 6 5 5 5 6 5 4 5 4 3
5 6 1 3 1 7 1 4 6 2 2 15 17 12 8 7 6 6 6 6 5 6 5 6 8 8 7 8 8 8 7 7 7 5 3 5 3 3 5 5 5 4 4 5 5 5 5 4 4
7 7 7 8 5 3 3 7 5 3 3 13 14 11 7 7 6 7 7 6 6 6 6 6 7 7 6 7 7 6 6 4 4 4 3 3 2 2 3 4 3 4 4 4 4 4 4 5 4
6 5 4 6 2 3 6 3 2 4 6 11 13 11 10 8 8 7 6 6 6 5 5 6 7 6 7 7 6 7 6 8 6 7 6 5 5 7 11 11 13 12 8 6 5 4 6 5 5
4 6 4 2 1 5 4 5 6 8 11 11 13 13 10 7 7 7 7 6 5 5 4 4 5 5 5 6 6 6 7 6 5 5 6 6 6 6 7 8 8 9 11 12 11 10 8 8 6
3 3 4 3 4 5 2 7 3 12 18 21 16 15 12 10 8 8 7 6 6 4 3 3 3 4 4 3 2 2 2 3 3 4 5 5 5 6 7 7 8 9 10 9 10 11 12 12 13
2 8 8 6 5 3 3 9 3 6 15 16 17 14 9 9 9 8 8 7 6 5 3 3 1 2 2 2 3 4 4 4 3 3 4 4 5 5 6 8 9 10 10 10 10 13 12 13 15
Wind_Direction
347 20 72 43 58 66 344 302 261 304 16 208 116 124 163 176 156 204 286 190 351 142 158 168 173 167 164 160 153 143 144 142 139 134 131 136 118 106 98 89 70 54 49 48 45 45 42 39 43
346 154 44 80 82 60 284 261 236 234 305 312 123 113 65 314 256 288 6 180 156 148 152 162 179 166 167 162 151 150 154 155 152 154 149 142 131 128 118 98 78 51 41 43 39 39 36 34 32
151 42 79 89 105 150 200 242 263 303 329 24 88 14 155 214 274 233 257 147 139 143 149 159 172 174 167 158 156 157 160 160 155 145 139 136 134 114 86 74 65 32 29 37 40 36 36 33 32
50 13 39 79 113 228 198 281 231 344 16 45 73 56 315 265 288 304 313 148 141 155 154 162 173 179 161 160 164 166 165 165 160 153 144 129 111 93 79 64 54 35 31 34 43 37 37 34 32
36 55 54 74 295 276 275 330 60 0 315 347 355 321 288 47 311 86 124 147 157 168 164 166 175 184 172 158 165 169 174 177 176 169 152 122 112 96 88 75 67 64 34 32 41 38 39 39 40
42 90 59 177 276 293 305 2 338 47 323 319 10 1 280 310 248 155 143 178 174 168 170 173 182 185 186 165 166 174 181 183 182 175 159 130 122 111 100 86 74 53 13 21 38 39 33 31 37
106 79 175 182 260 313 282 335 90 126 322 347 279 1 285 7 256 114 97 109 198 169 172 185 185 196 195 177 168 172 181 190 187 181 168 136 135 123 110 88 38 1 2 5 42 40 28 26 34
101 90 115 243 211 257 319 349 130 101 281 303 193 308 300 4 20 93 85 79 109 209 203 193 189 196 199 206 178 177 175 179 176 168 160 147 142 145 122 108 96 16 341 353 46 37 24 23 26
119 65 181 232 164 244 343 25 264 292 303 346 335 274 340 342 15 47 21 17 357 311 262 237 204 202 198 188 210 183 170 164 181 173 163 159 154 171 132 137 140 117 17 355 70 45 34 35 18
82 107 217 208 208 227 322 350 317 10 6 297 324 342 24 7 18 1 351 328 330 310 273 227 218 206 190 187 161 183 155 158 175 168 169 159 148 108 101 122 139 145 70 7 165 93 82 50 26
143 189 212 259 233 265 271 286 245 248 297 216 283 318 352 21 30 33 13 360 324 304 295 255 212 191 196 201 155 146 151 149 194 188 154 151 113 122 112 102 95 89 65 55 54 65 69 66 44
326 250 201 291 106 23 278 302 281 194 213 57 50 59 45 29 26 16 3 350 339 336 322 298 217 183 172 172 150 146 189 154 139 180 148 139 145 148 157 154 166 163 149 147 120 100 96 61 29
179 267 234 266 276 249 327 243 245 267 29 87 75 57 47 35 20 11 359 356 346 350 332 323 276 186 153 159 126 142 165 182 189 168 150 154 163 171 156 137 136 156 159 165 163 149 117 345 343
205 272 285 286 265 247 219 275 156 75 108 70 62 52 43 38 19 16 16 3 359 347 347 332 9 140 123 100 97 78 76 62 356 334 262 178 159 155 153 149 177 226 195 155 156 178 265 307 333
348 327 328 253 253 225 161 220 238 122 90 77 59 55 47 32 27 24 5 3 352 350 346 7 24 84 91 91 84 69 53 47 43 28 27 4 21 62 130 178 233 297 56 113 134 138 134 323 334
41 54 355 280 148 122 154 261 91 81 97 85 67 49 45 35 30 16 9 6 1 5 14 20 30 51 68 72 68 59 49 51 43 38 34 27 26 25 32 359 348 14 60 46 359 356 318 313 314
4 227 204 313 197 136 171 251 154 37 94 98 69 51 48 37 28 18 10 11 8 10 19 30 37 46 66 70 71 66 58 52 43 39 31 24 25 23 39 35 17 16 27 27 12 16 23 334 325
198 207 229 232 304 76 236 275 310 21 75 94 77 57 56 50 26 12 16 15 25 26 32 41 44 39 52 70 68 63 59 53 47 42 36 31 30 26 28 30 29 24 25 20 4 355 31 249 293
155 184 202 238 248 141 247 253 1 16 73 92 85 74 61 52 11 18 23 24 40 43 46 41 46 35 46 44 53 50 50 39 43 36 33 36 33 31 33 34 28 18 25 13 19 358 353 337 3
211 199 239 279 255 166 254 248 51 31 44 88 107 88 80 69 38 28 22 24 24 34 42 49 51 46 45 47 53 77 91 64 66 49 42 34 34 33 37 34 30 25 25 23 15 13 341 320 27
214 199 209 224 337 253 323 259 188 62 80 82 63 78 66 71 66 39 43 28 30 37 31 41 46 49 49 52 62 57 63 51 40 32 38 34 39 38 35 33 34 31 32 27 17 12 5 339 341
239 203 179 185 120 233 133 273 192 152 127 85 100 90 91 84 68 60 52 47 44 37 42 56 55 56 52 52 66 68 72 74 37 44 34 33 30 35 36 34 29 27 26 26 12 6 7 6 332
228 136 171 163 169 64 241 39 242 135 185 181 167 151 144 128 114 83 64 64 43 40 52 60 69 65 61 62 68 77 80 79 59 42 44 38 29 31 28 30 30 28 21 13 11 6 4 2 319
137 77 49 54 94 263 221 175 224 194 191 167 174 171 166 149 129 108 97 88 76 52 60 66 78 64 62 74 77 83 87 80 68 43 44 26 18 29 29 22 27 22 14 6 356 350 355 346 328
99 104 23 341 327 230 80 157 255 182 181 174 167 176 175 164 152 139 126 118 106 95 83 78 83 76 74 79 79 84 91 85 82 69 54 30 15 5 2 6 4 1 348 341 336 337 332 330 332
187 166 162 205 206 266 355 235 259 339 341 145 153 162 161 167 171 162 157 143 127 115 102 92 91 93 89 85 84 85 80 78 74 58 40 20 16 318 312 322 309 320 320 316 315 314 308 311 301
187 194 164 109 69 56 213 280 212 98 97 135 152 160 180 183 177 171 162 162 151 140 141 128 105 91 72 63 53 46 38 35 24 16 16 360 360 352 352 347 345 346 341 325 311 309 306 305 296
164 165 97 10 198 250 276 267 229 196 176 168 176 187 187 181 177 175 180 174 169 151 138 114 85 76 52 40 28 23 11 3 355 350 341 335 325 337 330 331 330 325 325 329 330 327 319 303 298
148 178 67 132 150 178 261 255 218 194 185 180 183 190 188 182 185 187 184 185 170 162 150 97 72 58 35 10 332 327 331 347 0 344 335 329 324 324 320 317 313 316 312 310 307 303 303 302 303
190 186 161 163 218 233 162 255 343 211 180 178 187 189 187 176 184 187 184 179 185 182 169 145 125 113 46 19 54 44 34 7 348 331 330 330 329 333 333 332 328 323 320 315 306 300 296 290 289